Change the Weather History Date:

Wednesday, August 29, 2012

  Actual Average Record
Temperature  
Mean Temperature 81 °F 73 °F  
Max Temperature 99 °F 88 °F 105 °F (1924)
Min Temperature 62 °F 58 °F 40 °F (1992)
Degree Days  
Heating Degree Days 0 0  
Month to date heating degree days 0 0  
Since 1 June heating degree days 0 22  
Since 1 July heating degree days 0 2  
Cooling Degree Days 16 8  
Month to date cooling degree days 366 310  
Year to date cooling degree days 1490 974  
Since 1 June cooling degree days 1398 914  
Growing Degree Days 31 (Base 50)    
Moisture  
Dew Point 31 °F    
Average Humidity 21    
Maximum Humidity 34    
Minimum Humidity 7    
Precipitation  
Precipitation 0.00 in 0.06 in 1.09 in (1957)
Month to date precipitation 1.06 2.17  
Year to date precipitation 4.38 12.26  
Snow  
Snow 0.00 in - - ()
Month to date snowfall 0.0  
Since 1 June snowfall 0.0  
Snow Depth 0.00 in    
Sea Level Pressure  
Sea Level Pressure 29.88 in    
Wind  
Wind Speed 12 mph (South)    
Max Wind Speed 26 mph    
Max Gust Speed 35 mph    
Visibility 10 miles    
Events      
T = Trace of Precipitation, MM = Missing Value Source: NWS Daily Summary

Daily Weather History Graph

Daily Weather History Graph

Search for Another Location

Airport or City:

Trip Planner

Search our weather history database for the weather conditions in past years. The results will help you decide how hot, cold, wet, or windy it might be!

Date:

Astronomy

Aug. 29, 2012 Rise Set
Actual Time 6:18 AM MDT 7:23 PM MDT
Civil Twilight 5:51 AM MDT 7:50 PM MDT
Nautical Twilight 5:18 AM MDT 8:23 PM MDT
Astronomical Twilight 4:45 AM MDT 8:56 PM MDT
Moon 6:05 PM MDT (8/29) 4:17 AM MDT (8/29)
Length of Visible Light 13h 59m
Length of Day
13h 05m
Waxing Gibbous, 96% of the Moon is Illuminated
Aug 29
Waxing Gibbous
Aug 31
Full
Sep 8
Last Quarter
Sep 15
New
Sep 22
First Quarter

Hourly Weather History & Observations

Time (MDT) Temp. Dew Point Humidity Pressure Visibility Wind Dir Wind Speed Gust Speed Precip Events Conditions
12:53 AM 72.0 °F 35.1 °F 26% 29.94 in 10.0 mi South 13.8 mph - N/A   Clear
1:53 AM 72.0 °F 34.0 °F 25% 29.93 in 10.0 mi SW 6.9 mph - N/A   Clear
2:53 AM 70.0 °F 34.0 °F 27% 29.93 in 10.0 mi WSW 3.5 mph - N/A   Clear
3:53 AM 66.9 °F 35.1 °F 31% 29.93 in 10.0 mi Calm Calm - N/A   Clear
4:53 AM 68.0 °F 35.1 °F 30% 29.91 in 10.0 mi SSW 6.9 mph - N/A   Clear
5:53 AM 64.9 °F 34.0 °F 32% 29.92 in 10.0 mi West 5.8 mph - N/A   Clear
6:53 AM 64.0 °F 35.1 °F 34% 29.94 in 10.0 mi Calm Calm - N/A   Clear
7:53 AM 75.0 °F 34.0 °F 22% 29.93 in 10.0 mi SW 4.6 mph - N/A   Clear
8:53 AM 84.0 °F 33.1 °F 16% 29.92 in 10.0 mi SSW 18.4 mph 21.9 mph N/A   Clear
9:53 AM 89.1 °F 33.1 °F 14% 29.91 in 10.0 mi SSW 15.0 mph - N/A   Clear
10:53 AM 91.0 °F 30.9 °F 12% 29.91 in 10.0 mi South 10.4 mph - N/A   Clear
11:53 AM 93.9 °F 25.0 °F 8% 29.88 in 10.0 mi South 17.3 mph 23.0 mph N/A   Clear
12:53 PM 96.1 °F 23.0 °F 7% 29.86 in 10.0 mi SSE 18.4 mph 25.3 mph N/A   Clear
1:53 PM 98.1 °F 24.1 °F 7% 29.84 in 10.0 mi South 16.1 mph 25.3 mph N/A   Clear
2:53 PM 98.1 °F 26.1 °F 8% 29.82 in 10.0 mi SSE 16.1 mph 26.5 mph N/A   Clear
3:53 PM 97.0 °F 25.0 °F 8% 29.81 in 10.0 mi SSE 18.4 mph 27.6 mph N/A   Clear
4:53 PM 96.1 °F 23.0 °F 7% 29.80 in 10.0 mi South 18.4 mph 28.8 mph N/A   Clear
5:53 PM 93.9 °F 25.0 °F 8% 29.81 in 10.0 mi South 18.4 mph 26.5 mph N/A   Clear
6:53 PM 90.0 °F 30.0 °F 12% 29.82 in 10.0 mi SSE 16.1 mph - N/A   Clear
7:53 PM 82.0 °F 32.0 °F 16% 29.83 in 10.0 mi SSE 11.5 mph - N/A   Clear
8:53 PM 78.1 °F 34.0 °F 20% 29.85 in 10.0 mi SSE 11.5 mph - N/A   Clear
9:53 PM 75.9 °F 35.1 °F 23% 29.86 in 10.0 mi South 12.7 mph - N/A   Clear
10:53 PM 73.9 °F 36.0 °F 25% 29.86 in 10.0 mi South 12.7 mph - N/A   Clear
11:53 PM 73.0 °F 37.9 °F 28% 29.86 in 10.0 mi South 13.8 mph - N/A   Clear